FALCON 9 R/B, 59347

Orbit data source: Space-Track

FALCON 9 R/B, 59347 is space debris in HEO originally from a launch on Sat, 30 Mar 2024 UTC launched from the Air Force Eastern Test Range (AFETR). Debris objects in space refer to the collection of defunct objects orbiting the Earth. Examples of debris include non-operational satellites, rocket bodies, and fragments generated from explosions, collisions, or faulty payload assembly.

Loading next visibility...
Identifier
59347, 2024-059B
Orbit
HEO
Country
Flag of USUS
Related business
Manufacturer
SpaceX
Mission
Spacecraft
Bus & Motor
F9ST2, Unknown motor
Mass
~4,000 kg wet, ~4,000 kg dry
Launch date (UTC)
2024-03-30 (2 years ago)
Launch vehicle
Unknown
Launch site
Air Force Eastern Test Range (AFETR)
Object type
Payload
Rocket body
Debris
Shape & HBR
Cyl, 7.8 m
Radar Cross Section
39.980 m², Large (>1 m²)

Expand to show TLE details & history
Last TLE update: 2 days ago

TLE from 2 days ago
0 FALCON 9 R/B
1 59347U 24059B   25305.67528887  .00004934  00000-0  53713-2 0  9995
2 59347  24.6253 243.5839 8181585 357.6042 359.8951  1.24431102  7183
Epoch: 2025-11-01T16:12Z
TLE epoch observation values (Epoch: 2025-11-01T16:12:24.958Z)
Latitude
-0.00013°
Longitude
-40.76217°
Altitude
243.001 km
Speed
10.463 km/s
True Right ascension
16h 14m 10s
True Declination
0° 00' 00"
Sunlit
Object was in daylight at epoch
Visualization orbit readout
Latitude
Unknown
Longitude
Unknown
Altitude
Unknown
Speed
Unknown
Apparent Right ascension
Unknown
Apparent Declination
Unknown
Sunlit
N/A
Visualization observer readout
Local Sidereal Time
08:09:27
Azimuth
Unknown
Elevation
Unknown
Doppler factor
Unknown
Orbital elements
Apogee altitude
60,017.116 km
Perigee altitude
262.325 km
Semi-major axis
36,517.858 km
Eccentricity
0.81816
Inclination
24.6253°
RAAN
243.5839°
Arg. of periapsis
357.6042°
True anomaly
358.17616°
Mean anomaly
359.8951°
Eccentric anomaly
359.42317°
Mean motion
0.31102 °/min
Orbital period
1,157.49 mins
BSTAR
0.0053713
Loading maneuver chart data...
Computing Atmospheric mass density...
Loading historical data...
Loading historical data...
Loading historical data...
Loading historical data...
Loading historical data...
Loading historical data...
Loading historical data...
Other satellites on launch #59 in the year 2024 (2024-03-30 UTC)

Documentation

Showing up to 5 results
|